Location: Camp at the Woods
(43.2055°N, 93.0905°W)
Time: 08:29:17
(UTC+00:00)

Cosmos 1076 Rocket - Pass Details

Date: 05 December 2023
Orbit: 586 x 609 km, 82.5° (Epoch: 29 February)

Event Time Altitude Azimuth Distance (km) Brightness Sun altitude
Rises 23:04:38 0° 353° (N) 2,883 6.8 -5.2°
Reaches altitude 10° 23:06:52 10° 355° (N) 1,974 5.9 -5.6°
Maximum altitude 23:11:15 77° 81° (E) 631 3.5 -6.3°
Drops below altitude 10° 23:15:34 10° 168° (SSE) 1,952 6.3 -7.0°
Sets 23:17:46 0° 170° (S) 2,848 7.1 -7.4°
